KC7MRQ Weather Reports


Display with metric or nautical units.
time (UTC)temp
F
wind
direction
speed
MPH
gust
MPH
rain 1hr
in
rain 24hr
in
rain mn
in
humidity
%
barometer
mb
20260508180100 60 237 4.0 11.0 0.00 0.00 0.00 36 1010.2
20260508174553 60 196 0.0 7.0 0.00 0.00 0.00 38 1010.4
20260508173051 60 175 9.0 14.0 0.00 0.00 0.00 39 1010.7
20260508171551 60 286 10.0 15.0 0.00 0.00 0.00 39 1010.8
20260508170044 59 167 7.0 11.0 0.00 0.00 0.00 41 1011.0
20260508164543 58 200 4.0 11.0 0.00 0.00 0.00 43 1011.2
20260508163041 57 167 6.0 12.0 0.00 0.00 0.00 45 1011.4
20260508161543 59 252 7.0 14.0 0.00 0.00 0.00 44 1011.4
20260508160037 57 110 2.0 7.0 0.00 0.00 0.00 51 1011.6
20260508154533 55 97 1.0 7.0 0.00 0.00 0.00 53 1011.5
20260508153034 55 106 2.0 6.0 0.00 0.00 0.00 55 1011.8
20260508151527 53 196 3.0 7.0 0.00 0.00 0.00 55 1011.9
20260508150025 51 108 3.0 8.0 0.00 0.00 0.00 61 1012.0
20260508144520 50 201 2.0 8.0 0.00 0.00 0.00 61 1012.1
20260508143016 49 211 2.0 8.0 0.00 0.00 0.00 66 1012.0
20260508141513 47 160 3.0 9.0 0.00 0.00 0.00 67 1012.1
20260508140009 45 188 8.0 12.0 0.00 0.00 0.00 69 1012.1
20260508134512 43 345 0.0 3.0 0.00 0.00 0.00 73 1012.1
20260508133007 43 345 9.0 17.0 0.00 0.00 0.00 73 1012.1
20260508131507 42 345 7.0 14.0 0.00 0.00 0.00 74 1012.0
20260508130006 41 345 6.0 12.0 0.00 0.00 0.00 76 1012.0
20260508124505 40 345 10.0 17.0 0.00 0.00 0.00 76 1011.9
20260508123007 40 345 13.0 17.0 0.00 0.00 0.00 77 1011.7
20260508121502 40 345 13.0 17.0 0.00 0.00 0.00 76 1011.5
20260508120100 39 345 13.0 18.0 0.00 0.00 0.00 76 1011.5
20260508120003 39 345 13.0 18.0 0.00 0.00 0.00 76 1011.4
20260508114609 39 345 15.0 19.0 0.00 0.00 0.00 77 1011.5
20260508113106 39 345 15.0 18.0 0.00 0.00 0.00 76 1011.4
20260508111612 40 345 13.0 16.0 0.00 0.00 0.00 75 1011.4
20260508110100 40 345 12.0 16.0 0.00 0.00 0.00 74 1011.5
20260508104559 40 345 14.0 18.0 0.00 0.00 0.00 76 1011.4
20260508103053 39 345 13.0 17.0 0.00 0.00 0.00 75 1011.4
20260508101553 40 345 12.0 15.0 0.00 0.00 0.00 74 1011.3
20260508100046 41 345 10.0 13.0 0.00 0.00 0.00 73 1011.2
20260508094547 40 345 6.0 11.0 0.00 0.00 0.00 74 1011.3
20260508093043 40 345 10.0 13.0 0.00 0.00 0.00 74 1011.1
20260508091551 41 345 9.0 12.0 0.00 0.00 0.00 73 1011.2
20260508090041 41 345 10.0 12.0 0.00 0.00 0.00 72 1011.2
20260508084535 42 298 6.0 12.0 0.00 0.00 0.00 70 1011.2
20260508083034 43 345 6.0 10.0 0.00 0.00 0.00 69 1011.2
20260508081543 43 345 0.0 12.0 0.00 0.00 0.00 69 1011.3
20260508080035 43 345 10.0 13.0 0.00 0.00 0.00 69 1011.2
20260508074527 43 345 13.0 17.0 0.00 0.00 0.00 68 1011.0
20260508073025 44 345 13.0 16.0 0.00 0.00 0.00 67 1011.0
20260508071523 44 345 8.0 11.0 0.00 0.00 0.00 67 1011.0
20260508070020 45 345 8.0 13.0 0.00 0.00 0.00 65 1010.9
20260508064525 46 345 6.0 14.0 0.00 0.00 0.00 64 1010.9
20260508063016 46 345 11.0 15.0 0.00 0.00 0.00 64 1010.8
20260508061512 45 345 8.0 12.0 0.00 0.00 0.00 66 1010.8
20260508060009 45 345 9.0 12.0 0.00 0.00 0.00 65 1010.5
20260508054511 46 345 10.0 14.0 0.00 0.00 0.00 64 1010.5
20260508053007 47 345 9.0 12.0 0.00 0.00 0.00 64 1010.3
20260508051515 48 345 6.0 9.0 0.00 0.00 0.00 57 1010.3
20260508050010 47 345 6.0 9.0 0.00 0.00 0.00 64 1010.3
20260508044507 48 345 8.0 10.0 0.00 0.00 0.00 64 1010.2
20260508043008 48 345 8.0 10.0 0.00 0.00 0.00 63 1010.1
20260508041509 50 345 6.0 9.0 0.00 0.00 0.00 61 1010.0
20260508040005 50 345 4.0 8.0 0.00 0.00 0.00 62 1009.9
20260508034505 49 345 4.0 8.0 0.00 0.00 0.00 65 1009.8
20260508033004 50 230 6.0 8.0 0.00 0.00 0.00 59 1009.6
20260508031504 51 252 6.0 9.0 0.00 0.00 0.00 60 1009.5
20260508030003 53 345 6.0 9.0 0.00 0.00 0.00 59 1009.3
20260508024503 52 345 5.0 8.0 0.00 0.00 0.00 61 1009.1
20260508023001 54 345 5.0 10.0 0.00 0.00 0.00 58 1008.9
20260508021501 55 250 8.0 11.0 0.00 0.00 0.00 56 1008.7
20260508020004 54 356 7.0 15.0 0.00 0.00 0.00 58 1008.5
20260508014601 54 2 11.0 18.0 0.00 0.00 0.00 57 1008.5
20260508013059 55 20 10.0 18.0 0.00 0.00 0.00 56 1008.3
20260508011609 55 2 15.0 22.0 0.00 0.00 0.00 56 1008.3
20260508010057 54 7 15.0 21.0 0.00 0.00 0.00 58 1008.3
20260508004600 56 10 15.0 24.0 0.00 0.00 0.00 57 1008.1
20260508003056 56 14 12.0 22.0 0.00 0.00 0.00 53 1008.0
20260508001556 56 246 14.0 24.0 0.00 0.00 0.00 53 1007.9
20260508000058 58 4 12.0 20.0 0.00 0.00 0.00 52 1007.6
20260507234557 60 9 13.0 20.0 0.00 0.00 0.00 47 1007.6
20260507233053 63 297 15.0 25.0 0.00 0.00 0.00 35 1007.3
20260507231552 63 228 8.0 23.0 0.00 0.00 0.00 35 1007.4
20260507230048 62 214 12.0 21.0 0.00 0.00 0.00 36 1007.4
20260507224549 62 208 12.0 23.0 0.00 0.00 0.00 38 1007.5
20260507223053 62 209 10.0 18.0 0.00 0.00 0.00 40 1007.5
20260507221545 60 221 7.0 16.0 0.00 0.00 0.00 41 1007.5
20260507220045 60 3 6.0 13.0 0.00 0.00 0.00 44 1007.6
20260507214544 62 25 7.0 18.0 0.00 0.00 0.00 35 1007.7
20260507213046 61 188 8.0 12.0 0.00 0.00 0.00 40 1007.8
20260507211539 60 228 12.0 18.0 0.00 0.00 0.00 39 1008.1
20260507210043 59 208 8.0 18.0 0.00 0.00 0.00 40 1008.3
20260507204542 60 210 9.0 20.0 0.00 0.00 0.00 39 1008.3
20260507203043 61 210 9.0 19.0 0.00 0.00 0.00 38 1008.1
20260507201538 60 217 15.0 24.0 0.00 0.00 0.00 38 1008.1
20260507200035 61 345 3.0 11.0 0.00 0.00 0.00 38 1008.0
20260507194534 60 345 3.0 13.0 0.00 0.00 0.00 41 1008.1
20260507193029 58 245 7.0 16.0 0.00 0.00 0.00 41 1008.1
20260507191528 58 239 12.0 18.0 0.00 0.00 0.00 41 1008.3
20260507190026 58 345 10.0 19.0 0.00 0.00 0.00 42 1008.3
20260507184524 57 345 12.0 18.0 0.00 0.00 0.00 42 1008.3
20260507183022 57 239 10.0 18.0 0.00 0.00 0.00 42 1008.6
20260507181521 56 262 11.0 19.0 0.00 0.00 0.00 42 1008.7